SAS724 EKVG-ENBR

Flight info

Callsign SAS724
Flight time 1h 20m
Altitude 37000
Route M078F370 ODEVA2W ODEVA DCT VALDI/N0440F370 DCT ETNOR ETNOR1P
Aircraft A20N/M-SDE2E3FGHIRWXY/LB1

Departure

Time 2026-04-28 19:15
Airport Vágar Airport (EKVG)

Arrival

Time 2026-04-28 20:35
Airport Bergen Airport, Flesland (ENBR)
Time Latitude Longitude Altitude Speed Heading
2026-04-28 18:37 62.06685 -7.27922 296 ft 0 kts 27°
2026-04-28 19:03 62.06683 -7.27924 295 ft 3 kts 27°
2026-04-28 19:03 62.06667 -7.27942 299 ft 3 kts 27°
2026-04-28 19:03 62.06650 -7.27960 299 ft 3 kts 27°
2026-04-28 19:03 62.06640 -7.27971 299 ft 0 kts 27°
2026-04-28 19:08 62.06646 -7.27978 300 ft 3 kts 322°
2026-04-28 19:08 62.06647 -7.28044 297 ft 5 kts 235°
2026-04-28 19:08 62.06611 -7.28070 296 ft 6 kts 186°
2026-04-28 19:09 62.06594 -7.28073 298 ft 0 kts 184°
2026-04-28 19:12 62.06587 -7.28077 295 ft 0 kts 197°
2026-04-28 19:12 62.06576 -7.28079 295 ft 9 kts 184°
2026-04-28 19:13 62.06484 -7.28126 296 ft 17 kts 179°
2026-04-28 19:13 62.06386 -7.27853 300 ft 36 kts 118°
2026-04-28 19:13 62.06253 -7.27320 286 ft 42 kts 118°
2026-04-28 19:13 62.06113 -7.26759 284 ft 43 kts 118°
2026-04-28 19:14 62.05974 -7.26200 276 ft 33 kts 117°
2026-04-28 19:14 62.05933 -7.26006 276 ft 3 kts 200°
2026-04-28 19:14 62.05947 -7.26087 275 ft 9 kts 297°
2026-04-28 19:14 62.06083 -7.26632 282 ft 79 kts 298°
2026-04-28 19:15 62.06455 -7.28130 303 ft 153 kts 298°
2026-04-28 19:15 62.07038 -7.30294 810 ft 174 kts 292°
2026-04-28 19:15 62.07628 -7.32443 1837 ft 167 kts 290°
2026-04-28 19:15 62.08018 -7.33911 2303 ft 176 kts 291°
2026-04-28 19:16 62.08807 -7.37130 3176 ft 195 kts 282°
2026-04-28 19:16 62.08923 -7.40200 3455 ft 223 kts 253°
2026-04-28 19:16 62.08074 -7.42903 4303 ft 224 kts 215°
2026-04-28 19:16 62.06563 -7.43739 5342 ft 236 kts 180°
2026-04-28 19:17 62.05010 -7.42308 6230 ft 259 kts 145°
2026-04-28 19:17 62.03820 -7.39379 7071 ft 270 kts 133°
2026-04-28 19:17 62.02709 -7.36091 7876 ft 275 kts 132°
2026-04-28 19:17 62.01574 -7.32787 8728 ft 278 kts 133°
2026-04-28 19:18 62.00395 -7.29474 9570 ft 282 kts 134°
2026-04-28 19:18 61.99188 -7.26162 10384 ft 286 kts 134°
2026-04-28 19:18 61.97830 -7.23112 11119 ft 282 kts 149°
2026-04-28 19:18 61.96266 -7.20613 11892 ft 285 kts 147°
2026-04-28 19:19 61.94844 -7.17519 12614 ft 299 kts 131°
2026-04-28 19:19 61.93886 -7.13510 13377 ft 312 kts 111°
2026-04-28 19:19 61.93431 -7.08931 14069 ft 324 kts 102°
2026-04-28 19:19 61.93119 -7.04090 14373 ft 345 kts 101°
2026-04-28 19:20 61.92814 -6.98883 14633 ft 366 kts 100°
2026-04-28 19:20 61.92485 -6.93379 14938 ft 384 kts 100°
2026-04-28 19:20 61.92136 -6.87676 15464 ft 393 kts 100°
2026-04-28 19:20 61.91775 -6.81873 16125 ft 399 kts 101°
2026-04-28 19:21 61.91403 -6.76003 16814 ft 403 kts 101°
2026-04-28 19:21 61.91023 -6.70082 17506 ft 407 kts 101°
2026-04-28 19:21 61.90635 -6.64096 18186 ft 412 kts 101°
2026-04-28 19:21 61.90223 -6.58048 18832 ft 416 kts 102°
2026-04-28 19:22 61.89772 -6.52019 19431 ft 419 kts 102°
2026-04-28 19:22 61.89448 -6.47902 19849 ft 421 kts 102°
2026-04-28 19:22 61.88791 -6.39763 20667 ft 424 kts 102°
2026-04-28 19:22 61.88287 -6.33588 21260 ft 427 kts 102°
2026-04-28 19:23 61.87778 -6.27367 21873 ft 430 kts 101°
2026-04-28 19:23 61.87266 -6.21110 22480 ft 433 kts 101°
2026-04-28 19:23 61.86748 -6.14792 23058 ft 435 kts 101°
2026-04-28 19:23 61.86228 -6.08459 23631 ft 438 kts 101°
2026-04-28 19:24 61.85701 -6.02074 24135 ft 441 kts 101°
2026-04-28 19:24 61.85167 -5.95652 24587 ft 444 kts 101°
2026-04-28 19:24 61.84627 -5.89174 25036 ft 447 kts 101°
2026-04-28 19:24 61.84082 -5.82688 25468 ft 449 kts 101°
2026-04-28 19:25 61.83528 -5.76141 25900 ft 452 kts 101°
2026-04-28 19:25 61.82971 -5.69593 26331 ft 454 kts 101°
2026-04-28 19:25 61.82412 -5.63060 26749 ft 456 kts 101°
2026-04-28 19:25 61.81843 -5.56445 27162 ft 458 kts 101°
2026-04-28 19:26 61.81260 -5.49709 27586 ft 460 kts 101°
2026-04-28 19:26 61.80679 -5.43042 28024 ft 461 kts 101°
2026-04-28 19:26 61.80102 -5.36456 28429 ft 463 kts 101°
2026-04-28 19:26 61.79509 -5.29735 28805 ft 466 kts 101°
2026-04-28 19:27 61.78912 -5.22996 29174 ft 468 kts 101°
2026-04-28 19:27 61.78308 -5.16224 29537 ft 470 kts 101°
2026-04-28 19:27 61.77698 -5.09429 29897 ft 472 kts 101°
2026-04-28 19:27 61.77082 -5.02601 30336 ft 472 kts 101°
2026-04-28 19:28 61.76463 -4.95791 30787 ft 471 kts 101°
2026-04-28 19:28 61.75843 -4.89005 31179 ft 470 kts 101°
2026-04-28 19:28 61.75221 -4.82240 31561 ft 469 kts 101°
2026-04-28 19:28 61.74597 -4.75481 31931 ft 469 kts 101°
2026-04-28 19:29 61.73970 -4.68734 32295 ft 468 kts 101°
2026-04-28 19:29 61.73553 -4.64274 32542 ft 468 kts 101°
2026-04-28 19:29 61.72709 -4.55281 33004 ft 467 kts 101°
2026-04-28 19:29 61.72081 -4.48645 33363 ft 466 kts 101°
2026-04-28 19:30 61.71444 -4.41943 33687 ft 466 kts 101°
2026-04-28 19:30 61.70805 -4.35254 34016 ft 465 kts 101°
2026-04-28 19:30 61.70163 -4.28578 34335 ft 465 kts 101°
2026-04-28 19:30 61.69519 -4.21918 34616 ft 464 kts 101°
2026-04-28 19:31 61.68870 -4.15239 34864 ft 464 kts 101°
2026-04-28 19:31 61.68218 -4.08567 35112 ft 464 kts 101°
2026-04-28 19:31 61.67564 -4.01905 35335 ft 464 kts 102°
2026-04-28 19:31 61.66906 -3.95241 35588 ft 464 kts 102°
2026-04-28 19:32 61.66248 -3.88616 35816 ft 463 kts 102°
2026-04-28 19:32 61.65585 -3.81972 36044 ft 463 kts 102°
2026-04-28 19:32 61.64928 -3.75423 36257 ft 463 kts 102°
2026-04-28 19:32 61.64252 -3.68723 36469 ft 463 kts 102°
2026-04-28 19:33 61.63581 -3.62100 36674 ft 463 kts 102°
2026-04-28 19:33 61.62915 -3.55567 36880 ft 463 kts 102°
2026-04-28 19:33 61.62236 -3.48935 37091 ft 462 kts 102°
2026-04-28 19:33 61.61556 -3.42338 37313 ft 462 kts 102°
2026-04-28 19:34 61.60872 -3.35726 37432 ft 463 kts 102°
2026-04-28 19:34 61.60184 -3.29109 37430 ft 463 kts 102°
2026-04-28 19:34 61.58802 -3.15919 37430 ft 462 kts 102°
2026-04-28 19:35 61.57407 -3.02741 37432 ft 462 kts 103°
2026-04-28 19:35 61.56000 -2.89582 37439 ft 462 kts 103°
2026-04-28 19:36 61.54590 -2.76525 37431 ft 462 kts 102°
2026-04-28 19:36 61.53148 -2.63299 37443 ft 463 kts 102°
2026-04-28 19:37 61.51946 -2.52368 37443 ft 463 kts 102°
2026-04-28 19:37 61.50252 -2.37114 37444 ft 463 kts 103°
2026-04-28 19:38 61.48778 -2.23977 37458 ft 463 kts 103°
2026-04-28 19:38 61.47293 -2.10873 37459 ft 463 kts 103°
2026-04-28 19:39 61.45792 -1.97753 37450 ft 464 kts 102°
2026-04-28 19:39 61.44286 -1.84704 37450 ft 465 kts 102°
2026-04-28 19:40 61.42757 -1.71577 37455 ft 465 kts 102°
2026-04-28 19:40 61.41215 -1.58462 37459 ft 465 kts 103°
2026-04-28 19:41 61.39660 -1.45351 37459 ft 465 kts 103°
2026-04-28 19:41 61.38093 -1.32274 37463 ft 465 kts 102°
2026-04-28 19:42 61.36511 -1.19172 37462 ft 466 kts 102°
2026-04-28 19:42 61.35185 -1.08286 37461 ft 466 kts 103°
2026-04-28 19:43 61.33315 -0.93069 37463 ft 466 kts 103°
2026-04-28 19:43 61.31694 -0.80004 37465 ft 465 kts 103°
2026-04-28 19:44 61.30064 -0.66981 37465 ft 464 kts 103°
2026-04-28 19:44 61.28422 -0.53972 37468 ft 464 kts 103°
2026-04-28 19:45 61.26770 -0.41001 37470 ft 465 kts 103°
2026-04-28 19:45 61.25113 -0.28094 37474 ft 465 kts 103°
2026-04-28 19:46 61.23435 -0.15134 37471 ft 465 kts 103°
2026-04-28 19:46 61.21744 -0.02184 37483 ft 465 kts 103°
2026-04-28 19:47 61.20319 0.08583 37477 ft 465 kts 103°
2026-04-28 19:47 61.18591 0.21534 37477 ft 466 kts 103°
2026-04-28 19:48 61.16851 0.34487 37479 ft 466 kts 104°
2026-04-28 19:48 61.15099 0.47429 37480 ft 466 kts 104°
2026-04-28 19:49 61.13344 0.60285 37477 ft 466 kts 104°
2026-04-28 19:49 61.11569 0.73185 37485 ft 466 kts 103°
2026-04-28 19:50 61.08890 0.92470 37481 ft 463 kts 103°
2026-04-28 19:51 61.07095 1.05261 37481 ft 463 kts 103°
2026-04-28 19:51 61.05287 1.18045 37487 ft 464 kts 104°
2026-04-28 19:52 61.03466 1.30818 37473 ft 464 kts 104°
2026-04-28 19:52 61.01638 1.43537 37490 ft 460 kts 103°
2026-04-28 19:53 60.99829 1.56031 37491 ft 457 kts 103°
2026-04-28 19:53 60.98003 1.68559 37488 ft 457 kts 103°
2026-04-28 19:54 60.96162 1.81092 37488 ft 457 kts 103°
2026-04-28 19:54 60.94308 1.93612 37495 ft 457 kts 103°
2026-04-28 19:55 60.92455 2.06042 37496 ft 457 kts 104°
2026-04-28 19:55 60.90581 2.18513 37494 ft 457 kts 103°
2026-04-28 19:56 60.88693 2.30991 37487 ft 457 kts 103°
2026-04-28 19:56 60.86794 2.43447 37486 ft 457 kts 103°
2026-04-28 19:57 60.84881 2.55906 37490 ft 457 kts 103°
2026-04-28 19:57 60.82960 2.68327 37494 ft 457 kts 103°
2026-04-28 19:58 60.81026 2.80740 37501 ft 457 kts 103°
2026-04-28 19:58 60.80054 2.86945 37136 ft 456 kts 103°
2026-04-28 19:58 60.79092 2.93075 36165 ft 459 kts 103°
2026-04-28 19:58 60.78106 2.99338 35125 ft 464 kts 103°
2026-04-28 19:59 60.77109 3.05644 34093 ft 467 kts 103°
2026-04-28 19:59 60.76102 3.11985 32966 ft 470 kts 103°
2026-04-28 19:59 60.75086 3.18357 31807 ft 474 kts 104°
2026-04-28 19:59 60.74060 3.24773 30825 ft 474 kts 104°
2026-04-28 20:00 60.73037 3.31125 30166 ft 468 kts 104°
2026-04-28 20:00 60.72017 3.37445 29524 ft 466 kts 104°
2026-04-28 20:00 60.71003 3.43713 28916 ft 464 kts 103°
2026-04-28 20:00 60.69989 3.49961 28267 ft 462 kts 103°
2026-04-28 20:01 60.68873 3.56124 27504 ft 465 kts 110°
2026-04-28 20:01 60.67326 3.61925 26581 ft 467 kts 119°
2026-04-28 20:01 60.65447 3.67327 25684 ft 466 kts 123°
2026-04-28 20:01 60.63497 3.72560 24871 ft 461 kts 123°
2026-04-28 20:02 60.61570 3.77645 24075 ft 457 kts 124°
2026-04-28 20:02 60.59640 3.82714 23184 ft 451 kts 124°
2026-04-28 20:02 60.57724 3.87733 22320 ft 445 kts 123°
2026-04-28 20:02 60.55833 3.92675 21449 ft 440 kts 123°
2026-04-28 20:03 60.53962 3.97556 20623 ft 435 kts 123°
2026-04-28 20:03 60.52112 4.02374 19793 ft 430 kts 123°
2026-04-28 20:03 60.50280 4.07134 19000 ft 425 kts 123°
2026-04-28 20:03 60.48468 4.11835 18148 ft 420 kts 123°
2026-04-28 20:04 60.46679 4.16464 17267 ft 415 kts 123°
2026-04-28 20:04 60.44911 4.21030 16454 ft 409 kts 123°
2026-04-28 20:04 60.43167 4.25528 15643 ft 404 kts 123°
2026-04-28 20:04 60.41452 4.29941 14859 ft 399 kts 124°
2026-04-28 20:05 60.39736 4.34348 14063 ft 393 kts 124°
2026-04-28 20:05 60.38056 4.38655 13290 ft 386 kts 124°
2026-04-28 20:05 60.36411 4.42861 12633 ft 376 kts 124°
2026-04-28 20:05 60.34827 4.46906 11982 ft 368 kts 125°
2026-04-28 20:06 60.33267 4.50881 11620 ft 352 kts 125°
2026-04-28 20:06 60.31786 4.54646 11378 ft 335 kts 125°
2026-04-28 20:06 60.30372 4.58236 11146 ft 319 kts 125°
2026-04-28 20:06 60.29009 4.61697 10702 ft 312 kts 125°
2026-04-28 20:07 60.27662 4.65118 10118 ft 311 kts 126°
2026-04-28 20:07 60.26774 4.67369 9753 ft 308 kts 126°
2026-04-28 20:07 60.25001 4.71851 9038 ft 302 kts 125°
2026-04-28 20:07 60.23713 4.75104 8475 ft 300 kts 125°
2026-04-28 20:08 60.22421 4.78360 7948 ft 296 kts 126°
2026-04-28 20:08 60.21142 4.81578 7403 ft 293 kts 126°
2026-04-28 20:08 60.19874 4.84763 6885 ft 290 kts 126°
2026-04-28 20:08 60.18622 4.87906 6317 ft 287 kts 126°
2026-04-28 20:09 60.17381 4.91015 5799 ft 283 kts 126°
2026-04-28 20:09 60.16166 4.94055 5411 ft 275 kts 126°
2026-04-28 20:09 60.14977 4.97027 5097 ft 272 kts 126°
2026-04-28 20:09 60.13793 4.99982 4780 ft 270 kts 127°
2026-04-28 20:10 60.12620 5.02908 4469 ft 269 kts 127°
2026-04-28 20:10 60.11458 5.05799 4259 ft 262 kts 127°
2026-04-28 20:10 60.10344 5.08566 4180 ft 249 kts 127°
2026-04-28 20:10 60.09279 5.11207 4078 ft 238 kts 127°
2026-04-28 20:11 60.08363 5.13853 3996 ft 222 kts 112°
2026-04-28 20:11 60.08043 5.16667 3815 ft 205 kts 83°
2026-04-28 20:11 60.08434 5.19363 3530 ft 197 kts 61°
2026-04-28 20:11 60.09072 5.21774 3327 ft 195 kts 57°
2026-04-28 20:12 60.09744 5.24120 3056 ft 191 kts 56°
2026-04-28 20:12 60.10591 5.26178 2877 ft 195 kts 29°
2026-04-28 20:12 60.11852 5.27031 2617 ft 190 kts
2026-04-28 20:12 60.12700 5.27228 2511 ft 181 kts
2026-04-28 20:13 60.14222 5.26907 2500 ft 148 kts 351°
2026-04-28 20:13 60.15174 5.26568 2521 ft 137 kts 351°
2026-04-28 20:13 60.16119 5.26245 2501 ft 139 kts 351°
2026-04-28 20:13 60.17072 5.25928 2452 ft 139 kts 351°
2026-04-28 20:14 60.18026 5.25613 2270 ft 139 kts 351°
2026-04-28 20:14 60.18974 5.25296 2069 ft 138 kts 351°
2026-04-28 20:14 60.19922 5.24978 1875 ft 138 kts 351°
2026-04-28 20:14 60.20865 5.24663 1682 ft 137 kts 351°
2026-04-28 20:15 60.21805 5.24348 1488 ft 137 kts 351°
2026-04-28 20:15 60.22744 5.24032 1301 ft 136 kts 351°
2026-04-28 20:15 60.23665 5.23723 1114 ft 136 kts 351°
2026-04-28 20:15 60.24596 5.23411 923 ft 136 kts 350°
2026-04-28 20:16 60.25527 5.23097 755 ft 136 kts 349°
2026-04-28 20:16 60.26458 5.22785 555 ft 135 kts 349°
2026-04-28 20:16 60.27382 5.22474 375 ft 134 kts 349°
2026-04-28 20:16 60.28336 5.22114 696 ft 142 kts 350°
2026-04-28 20:17 60.29328 5.21791 1580 ft 144 kts 351°
2026-04-28 20:17 60.30307 5.21472 2431 ft 150 kts 351°
2026-04-28 20:17 60.31440 5.21099 2897 ft 177 kts 351°
2026-04-28 20:17 60.32761 5.20660 2955 ft 205 kts 351°
2026-04-28 20:18 60.34200 5.20177 2983 ft 211 kts 351°
2026-04-28 20:18 60.35180 5.19845 2993 ft 211 kts 351°
2026-04-28 20:18 60.37097 5.19198 2995 ft 212 kts 351°
2026-04-28 20:18 60.38556 5.18703 2993 ft 212 kts 351°
2026-04-28 20:19 60.40018 5.18207 2996 ft 213 kts 351°
2026-04-28 20:19 60.41481 5.17711 2996 ft 213 kts 351°
2026-04-28 20:19 60.42940 5.17215 2992 ft 213 kts 351°
2026-04-28 20:19 60.44402 5.16718 2992 ft 213 kts 351°
2026-04-28 20:20 60.45863 5.16221 2991 ft 213 kts 351°
2026-04-28 20:20 60.47305 5.15730 2993 ft 213 kts 351°
2026-04-28 20:20 60.48764 5.15232 2991 ft 213 kts 351°
2026-04-28 20:20 60.50227 5.14733 2992 ft 213 kts 351°
2026-04-28 20:21 60.51684 5.14236 2988 ft 213 kts 351°
2026-04-28 20:21 60.53144 5.13737 2996 ft 213 kts 351°
2026-04-28 20:21 60.54608 5.13236 2994 ft 212 kts 351°
2026-04-28 20:21 60.56068 5.12736 2999 ft 213 kts 351°
2026-04-28 20:22 60.57518 5.12161 2994 ft 212 kts 343°
2026-04-28 20:22 60.58801 5.10741 2990 ft 212 kts 316°
2026-04-28 20:22 60.59542 5.08163 2998 ft 216 kts 284°
2026-04-28 20:22 60.59465 5.05119 3001 ft 221 kts 251°
2026-04-28 20:23 60.58551 5.02623 3002 ft 225 kts 216°
2026-04-28 20:23 60.57145 5.01195 2997 ft 228 kts 200°
2026-04-28 20:23 60.55605 5.00616 3001 ft 229 kts 181°
2026-04-28 20:23 60.54011 5.00772 2999 ft 230 kts 174°
2026-04-28 20:24 60.52420 5.01161 2997 ft 230 kts 172°
2026-04-28 20:24 60.50835 5.01627 2989 ft 230 kts 171°
2026-04-28 20:24 60.49258 5.02123 3158 ft 230 kts 171°
2026-04-28 20:24 60.47669 5.02635 3417 ft 231 kts 170°
2026-04-28 20:25 60.46077 5.03156 3678 ft 232 kts 170°
2026-04-28 20:25 60.44480 5.03681 3928 ft 233 kts 170°
2026-04-28 20:25 60.42875 5.04210 3994 ft 234 kts 170°
2026-04-28 20:25 60.41262 5.04742 3994 ft 234 kts 170°
2026-04-28 20:26 60.39653 5.05274 3995 ft 235 kts 170°
2026-04-28 20:26 60.38043 5.05805 3998 ft 235 kts 170°
2026-04-28 20:26 60.36453 5.06330 3991 ft 234 kts 170°
2026-04-28 20:26 60.34839 5.06861 3994 ft 235 kts 170°
2026-04-28 20:27 60.33218 5.07395 3994 ft 236 kts 170°
2026-04-28 20:27 60.31594 5.07927 3991 ft 236 kts 170°
2026-04-28 20:27 60.29972 5.08461 3992 ft 236 kts 170°
2026-04-28 20:27 60.28353 5.08993 3994 ft 236 kts 170°
2026-04-28 20:28 60.26732 5.09524 3997 ft 236 kts 170°
2026-04-28 20:28 60.25102 5.10059 3996 ft 236 kts 170°
2026-04-28 20:28 60.23483 5.10588 3995 ft 236 kts 170°
2026-04-28 20:28 60.21862 5.11118 3996 ft 236 kts 170°
2026-04-28 20:29 60.20239 5.11647 3981 ft 236 kts 171°
2026-04-28 20:29 60.18622 5.12175 3997 ft 236 kts 170°
2026-04-28 20:29 60.16999 5.12704 3995 ft 236 kts 170°
2026-04-28 20:29 60.15400 5.13225 3992 ft 236 kts 171°
2026-04-28 20:30 60.13782 5.13751 3994 ft 236 kts 170°
2026-04-28 20:30 60.12161 5.14278 3996 ft 236 kts 170°
2026-04-28 20:30 60.10574 5.15079 3980 ft 234 kts 153°
2026-04-28 20:30 60.09416 5.17221 4003 ft 227 kts 117°
2026-04-28 20:31 60.09019 5.20188 3984 ft 221 kts 84°
2026-04-28 20:31 60.09431 5.23106 3703 ft 218 kts 61°
2026-04-28 20:31 60.10257 5.25607 3385 ft 214 kts 36°
2026-04-28 20:31 60.11584 5.26806 3072 ft 210 kts 12°
2026-04-28 20:32 60.13023 5.27195 2774 ft 208 kts 359°
2026-04-28 20:32 60.14461 5.26880 2563 ft 207 kts 349°
2026-04-28 20:32 60.15872 5.26340 2496 ft 206 kts 350°
2026-04-28 20:32 60.17294 5.25851 2408 ft 208 kts 351°
2026-04-28 20:33 60.18701 5.25387 2175 ft 203 kts 351°
2026-04-28 20:33 60.20060 5.24932 1850 ft 191 kts 351°
2026-04-28 20:33 60.21317 5.24508 1607 ft 175 kts 351°
2026-04-28 20:33 60.22473 5.24120 1355 ft 162 kts 351°
2026-04-28 20:34 60.23512 5.23769 1196 ft 141 kts 351°
2026-04-28 20:34 60.24468 5.23442 1012 ft 141 kts 351°
2026-04-28 20:34 60.25440 5.23093 801 ft 142 kts 349°
2026-04-28 20:34 60.26414 5.22759 590 ft 142 kts 351°
2026-04-28 20:35 60.27052 5.22572 430 ft 138 kts 351°
2026-04-28 20:35 60.27976 5.22269 254 ft 131 kts 349°
2026-04-28 20:35 60.28832 5.21987 177 ft 108 kts 350°
2026-04-28 20:35 60.29280 5.21838 177 ft 37 kts 351°
2026-04-28 20:36 60.29381 5.21904 180 ft 11 kts 76°
2026-04-28 20:36 60.29392 5.22045 179 ft 8 kts 81°
2026-04-28 20:36 60.29373 5.22122 179 ft 10 kts 153°
2026-04-28 20:36 60.29299 5.22155 182 ft 11 kts 169°
2026-04-28 20:37 60.29225 5.22178 181 ft 12 kts 172°
2026-04-28 20:37 60.29137 5.22207 177 ft 12 kts 169°
2026-04-28 20:37 60.29053 5.22238 177 ft 13 kts 172°
2026-04-28 20:37 60.28965 5.22264 177 ft 11 kts 171°
2026-04-28 20:38 60.28933 5.22325 177 ft 8 kts 95°
2026-04-28 20:38 60.28907 5.22398 177 ft 6 kts 158°
2026-04-28 20:38 60.28890 5.22424 177 ft 3 kts 111°
2026-04-28 20:38 60.28894 5.22473 177 ft 4 kts 81°
2026-04-28 20:39 60.28896 5.22521 177 ft 3 kts 86°
2026-04-28 20:39 60.28896 5.22537 177 ft 0 kts 86°